Location: Sunset Hills
(34.4956°N, 117.2223°W)
Time: 01:24:51
(UTC+00:00)

Cosmos 1818 - Pass Details

Date: 03 August 2024
Orbit: 770 x 801 km, 65.0° (Epoch: 11 September)

Event Time Altitude Azimuth Distance (km) Brightness Sun altitude
Exits shadow 12:02:05 - 204° (SSW) 2,395 5.6 -11.8°
Reaches altitude 10° 12:02:14 10° 203° (SSW) 2,341 5.5 -11.8°
Maximum altitude 12:07:37 81° 117° (ESE) 806 3.7 -10.8°
Drops below altitude 10° 12:13:05 10° 31° (NNE) 2,373 7.1 -9.8°
Sets 12:15:31 0° 30° (NNE) 3,309 7.9 -9.4°
